Temperature
20 20 20 19 19 19 19 19 19 18 18 18 18 18 18 18 18 18 18 17 17 17 17 17 17 17 17 17 17 17 17 16 16 16 16 16 16 16 16 16 16 16 16
20 20 20 19 19 19 19 19 18 18 18 18 18 18 18 18 18 17 17 17 17 17 17 17 17 17 17 17 17 17 17 16 16 16 16 16 16 16 16 16 16 15 15
20 20 19 19 19 19 19 18 18 18 18 18 18 18 18 18 18 17 17 17 17 17 17 17 17 17 17 17 17 17 16 16 16 16 16 16 16 16 15 15 15 15 15
20 20 19 19 19 19 18 18 18 18 18 18 18 18 17 17 17 17 17 17 17 17 17 17 17 17 17 16 16 16 16 16 16 16 16 15 15 15 15 15 15 15 15
20 19 19 19 19 18 18 18 18 18 18 18 18 17 17 17 17 17 17 17 16 16 16 16 16 16 16 16 16 16 16 16 15 15 15 15 15 15 15 15 15 15 14
19 19 19 19 18 18 18 18 18 18 18 17 17 17 17 17 17 17 16 16 16 16 16 16 16 16 16 16 16 16 15 15 15 15 15 15 15 15 15 14 14 14 14
19 19 19 18 18 18 18 18 17 17 17 17 17 17 17 17 16 16 16 16 16 16 16 16 16 16 16 16 15 15 15 15 15 15 15 15 15 15 14 14 14 14 14
19 19 18 18 18 18 18 17 17 17 17 17 17 16 16 16 16 16 16 16 15 15 15 16 15 15 15 15 15 15 15 15 15 14 14 14 14 14 14 14 14 13 13
19 18 18 18 18 18 17 17 17 17 17 16 16 16 16 16 16 16 16 15 15 15 15 15 15 15 15 15 15 14 14 14 14 14 14 14 14 14 14 13 13 13 13
19 18 18 18 18 17 17 17 17 16 16 16 16 16 16 16 15 15 15 15 15 15 15 15 15 15 14 14 14 14 14 14 14 14 13 13 13 13 13 13 13 13 13
18 18 18 18 17 17 17 17 16 16 16 16 16 15 15 15 15 15 15 15 15 15 14 14 14 14 14 14 13 13 13 13 13 13 13 13 13 13 13 13 12 12 12
18 18 18 17 17 17 16 16 16 16 16 15 15 15 15 15 15 14 14 14 14 14 14 14 14 14 13 13 13 13 13 13 13 13 12 12 12 12 12 12 12 12 12
18 17 17 17 17 16 16 16 15 15 15 15 15 15 15 14 14 14 14 14 14 14 13 13 13 13 13 13 13 13 12 12 12 12 12 12 12 12 12 12 12 11 11
17 17 17 16 16 16 15 15 15 15 15 15 15 15 14 14 14 14 14 14 13 13 13 13 13 13 13 13 12 12 12 12 12 12 11 11 11 11 11 11 11 11 11
17 17 16 16 16 15 15 15 15 15 15 15 15 14 14 14 14 13 13 13 13 13 13 13 13 12 12 12 12 12 12 11 11 11 11 11 11 11 11 11 10 10 10
16 16 16 15 15 15 15 15 14 14 14 14 14 14 14 14 13 13 13 13 12 12 12 12 12 12 12 11 11 11 11 11 11 11 11 10 10 10 10 10 10 10 10
16 15 15 15 15 15 15 14 14 14 14 14 14 14 13 13 13 13 13 12 12 12 12 12 12 11 11 11 11 11 11 11 10 10 10 10 10 10 10 10 10 10 9
15 15 15 15 14 14 14 14 14 14 14 14 14 13 13 13 13 12 12 12 12 11 11 11 11 11 11 11 11 10 10 10 10 10 10 10 10 10 9 9 9 9 9
14 14 14 14 14 14 14 14 14 14 14 13 13 13 13 12 12 12 12 11 11 11 11 11 11 11 10 10 10 10 10 10 10 9 9 9 9 9 9 9 9 9 9
14 14 14 14 13 13 13 13 13 13 13 13 13 12 12 12 12 11 11 11 11 11 10 10 10 10 10 10 10 10 10 9 9 9 9 9 9 9 9 8 8 8 8
14 13 13 13 13 13 13 13 13 13 13 12 12 12 12 12 11 11 11 11 11 11 10 10 10 10 10 10 9 9 9 9 9 9 9 9 8 8 8 8 8 8 8
13 13 13 13 13 13 13 13 13 13 12 12 12 12 11 11 11 11 11 11 11 10 10 10 10 9 9 9 9 9 9 9 8 8 8 8 8 8 8 7 7 7 7
13 13 13 13 13 13 13 13 12 12 12 12 12 11 11 11 11 11 10 10 10 10 10 9 9 9 9 9 9 8 8 8 8 8 8 8 8 7 7 7 7 7 7
13 13 13 12 12 12 12 12 12 12 12 12 11 11 11 11 11 10 10 10 10 10 9 9 9 9 9 8 8 8 8 8 8 8 7 7 7 7 7 7 6 6 6
13 12 12 12 12 12 12 12 12 11 11 11 11 11 11 11 10 10 10 10 10 9 9 9 9 9 8 8 8 8 8 7 7 7 7 7 7 6 6 6 6 6 6
12 12 12 12 12 12 12 11 11 11 11 11 11 11 10 10 10 10 10 9 9 9 9 9 8 8 8 8 7 7 7 7 7 7 7 6 6 6 6 6 6 6 6
Wind_Speed
6 5 5 4 4 3 3 3 3 2 2 2 2 2 2 2 2 2 2 2 2 2 2 1 2 2 1 1 1 1 1 2 3 4 2 2 1 2 1 2 3 3 4
6 5 5 4 4 3 3 3 2 2 2 2 2 2 2 2 2 2 3 2 2 2 2 2 2 1 1 1 1 1 2 2 2 3 3 2 2 2 2 2 2 3 3
6 6 5 4 4 4 4 3 2 2 2 2 2 2 2 2 3 3 3 3 3 3 3 3 3 1 1 1 1 1 1 1 1 2 3 2 2 1 1 1 1 1 2
6 6 5 5 5 4 4 3 3 2 2 2 2 2 2 2 3 3 3 3 3 2 2 2 2 2 2 2 1 1 1 1 1 1 2 2 1 1 0 1 1 1 1
6 6 5 4 4 3 3 3 2 2 2 2 2 2 2 2 2 2 3 3 2 2 2 2 3 3 3 2 2 2 1 1 1 1 2 1 2 1 1 1 1 1 2
6 6 5 5 4 4 4 3 2 2 2 2 3 2 2 3 3 3 2 2 2 2 2 2 2 1 2 1 2 2 3 3 3 2 2 3 4 3 2 2 1 0 2
6 5 5 5 5 5 5 3 3 3 2 3 3 2 3 4 4 4 4 3 3 3 3 3 3 2 2 1 1 2 2 3 4 5 4 5 5 4 3 3 3 2 4
5 5 5 5 5 5 4 4 4 3 3 3 3 3 3 4 4 4 4 3 3 3 4 4 4 3 2 2 1 2 2 3 3 3 5 6 5 4 5 5 4 3 2
5 5 5 5 5 4 5 5 4 4 4 3 3 3 3 4 4 4 3 2 2 4 3 3 3 3 3 1 0 2 3 4 3 2 3 5 5 3 3 2 2 1 2
5 5 4 4 5 5 5 5 3 3 4 3 2 2 3 3 3 2 2 1 1 2 2 2 3 3 3 2 1 2 3 4 3 3 3 3 2 2 3 3 4 3 2
5 4 4 4 5 5 4 3 3 3 2 2 2 1 1 1 1 1 1 1 2 2 2 2 2 3 3 3 3 3 5 4 2 2 2 2 2 1 1 1 2 3 2
4 4 4 4 3 3 3 2 2 3 3 2 1 1 1 1 0 1 1 1 1 2 3 3 3 3 3 3 3 4 3 1 1 1 1 2 2 2 2 2 2 2 2
3 3 3 2 2 2 3 3 3 2 3 2 2 2 1 1 1 2 2 1 1 1 3 4 4 4 3 3 4 4 2 0 0 1 2 3 3 3 2 1 1 1 2
3 3 2 2 2 1 1 2 3 3 3 3 3 3 2 1 1 1 1 1 2 1 2 3 3 3 2 2 2 1 1 2 2 2 2 2 2 1 1 1 1 1 1
2 2 2 2 2 1 1 1 2 3 4 5 4 4 4 3 4 3 2 1 1 1 0 1 2 1 2 1 1 2 1 1 1 2 1 1 1 2 2 1 1 0 1
3 2 2 2 2 2 2 1 2 0 1 2 4 4 3 3 3 3 3 2 1 1 2 0 1 1 1 1 1 2 1 1 2 1 1 1 1 2 2 2 1 1 2
3 3 3 3 3 3 3 3 1 2 2 1 1 3 3 3 3 3 2 1 0 2 2 0 1 1 2 2 2 2 2 2 1 1 1 2 2 2 2 2 1 1 2
3 3 3 3 4 4 4 3 3 4 2 1 1 1 2 2 2 2 1 2 2 1 0 1 1 2 2 2 1 1 1 1 1 1 1 1 1 1 1 2 2 2 2
3 3 2 2 2 3 3 3 3 4 3 2 0 1 0 1 0 1 1 1 1 1 1 1 1 2 2 2 1 1 1 1 1 1 1 1 1 1 1 2 2 2 2
3 4 2 2 2 2 2 2 3 3 3 3 2 2 1 2 0 1 1 1 1 2 2 2 2 2 2 1 1 1 0 0 1 1 2 1 1 1 2 2 2 2 2
2 2 3 2 2 3 2 3 3 3 3 3 3 3 5 4 4 3 3 3 3 3 3 2 2 2 1 1 1 1 1 1 1 1 2 2 1 1 2 2 2 2 2
2 2 2 2 2 2 2 2 3 3 3 3 2 2 5 3 2 3 3 3 3 3 3 2 2 2 2 2 2 1 1 1 1 1 1 2 2 2 2 2 2 2 1
2 2 2 2 2 3 3 2 2 3 3 3 3 3 3 3 3 3 3 3 2 2 1 1 2 1 1 1 2 2 2 2 2 2 2 2 2 2 1 1 2 2 2
2 2 2 3 2 2 2 2 2 2 3 3 3 3 3 3 3 3 3 2 2 1 1 1 1 2 2 1 2 2 2 2 2 3 2 2 2 2 1 1 2 2 2
1 2 2 2 3 3 3 2 2 2 2 2 3 3 2 2 2 2 2 1 1 1 1 2 1 2 3 2 1 1 1 2 2 2 3 2 2 3 2 2 2 3 3
1 2 2 2 2 3 3 3 2 2 2 2 2 2 2 2 2 1 1 1 1 1 1 1 2 2 3 3 2 2 2 2 3 2 2 2 2 2 2 2 3 3 3
Wind_Direction
172 175 175 179 181 172 178 196 199 209 206 202 208 207 209 209 206 191 224 224 224 260 270 254 268 272 279 281 262 212 210 194 237 280 282 294 280 257 255 213 211 204 208
171 166 171 173 168 169 186 200 192 205 224 216 207 208 216 217 218 205 221 235 224 239 257 259 271 283 292 273 253 252 242 222 209 266 296 303 284 248 244 233 219 204 196
166 162 164 168 174 185 196 202 194 198 216 210 194 209 225 230 234 232 221 226 229 228 230 230 245 236 275 283 267 275 264 268 222 229 278 289 292 292 292 288 285 263 212
169 169 175 185 190 193 195 194 194 192 193 202 204 219 231 237 243 234 221 229 236 244 241 232 225 208 219 238 263 263 255 254 242 232 279 297 293 288 312 295 313 305 267
166 171 184 185 177 175 182 195 202 205 212 212 214 229 239 237 245 225 223 222 223 234 244 243 226 208 210 225 243 239 221 227 224 232 260 290 285 284 253 239 254 288 281
167 176 176 170 172 179 186 193 202 218 242 232 224 231 247 259 262 251 233 236 231 216 238 262 255 242 249 270 262 253 222 216 223 226 245 248 256 243 234 231 226 261 277
175 180 183 182 184 196 201 198 219 232 245 252 237 237 250 258 257 250 238 234 240 235 227 233 252 264 260 256 301 323 292 252 222 213 226 242 242 234 214 226 222 215 241
179 183 191 190 199 204 197 201 217 227 235 244 239 229 238 264 264 253 251 248 243 244 229 216 218 242 254 255 286 322 310 292 260 230 226 238 240 232 212 211 214 225 264
186 194 198 195 198 198 202 211 215 214 228 239 239 225 234 262 258 252 247 237 243 255 244 225 215 231 248 244 258 300 309 307 308 267 238 235 236 233 199 169 169 174 264
198 199 194 192 195 203 214 217 213 207 216 221 224 228 227 252 262 259 246 196 250 274 283 271 246 239 249 238 202 222 264 283 304 328 327 308 284 255 199 193 198 201 233
200 195 196 201 206 209 212 211 210 210 205 208 215 245 249 257 262 261 262 227 223 252 268 272 264 254 252 248 233 231 240 257 285 306 310 316 324 312 273 214 195 192 214
192 195 204 210 218 212 199 214 214 200 191 204 212 235 305 317 302 278 257 246 213 215 253 262 264 263 253 249 254 249 254 285 314 328 323 299 285 279 265 244 224 221 217
186 202 211 205 209 196 192 199 202 196 192 197 188 200 239 302 304 280 256 261 269 245 265 268 274 271 264 257 253 248 247 201 217 249 265 271 266 265 267 278 305 301 300
185 205 201 189 200 207 193 190 189 189 188 194 191 197 200 215 275 306 314 331 337 332 314 315 314 303 283 262 277 281 226 201 208 239 254 269 282 289 281 267 271 324 335
185 199 197 191 183 185 192 209 199 202 198 195 200 190 186 212 236 217 211 245 252 253 2 15 6 357 352 341 324 307 282 237 238 255 255 271 284 281 272 265 239 237 267
184 201 205 204 195 183 163 35 7 272 213 190 198 188 192 202 194 200 220 235 243 155 123 133 293 294 281 281 284 293 301 292 279 260 249 245 253 263 270 266 238 224 248
191 202 206 201 195 189 186 178 195 354 20 49 182 181 177 174 174 182 190 214 146 124 113 217 258 263 264 259 257 262 278 290 279 248 247 252 253 256 259 263 257 261 264
200 202 207 211 207 201 201 200 193 188 196 287 334 209 179 169 180 189 163 88 41 48 191 225 241 250 247 245 256 273 294 321 324 292 278 273 251 245 260 263 248 239 252
213 211 210 207 211 209 206 199 188 179 182 184 134 359 190 161 156 240 151 127 184 252 267 245 241 238 241 245 248 245 246 286 307 300 283 280 281 277 263 256 244 239 232
225 218 204 192 197 194 188 185 180 177 178 175 186 197 149 114 154 249 235 224 226 243 245 238 241 237 239 246 242 225 219 247 267 267 270 277 278 256 257 261 252 243 231
226 220 222 200 192 188 187 187 178 173 179 184 207 210 177 180 198 210 219 226 225 230 236 229 233 233 229 232 228 208 195 229 246 251 267 278 279 279 271 266 270 261 246
220 212 205 193 180 170 167 167 162 163 173 184 198 206 197 191 200 209 221 234 234 229 218 204 212 221 215 212 196 191 199 230 257 261 263 274 277 279 282 285 279 280 267
197 202 189 161 148 148 149 148 156 163 172 177 178 182 188 204 216 218 225 236 238 234 229 198 193 214 247 195 174 175 191 225 245 240 236 255 269 271 277 282 288 306 302
189 191 172 159 151 154 158 164 170 169 173 176 176 180 188 204 219 226 232 233 222 231 215 199 196 189 180 169 164 166 194 220 228 227 217 222 245 263 269 280 287 293 283
152 164 166 165 167 173 175 175 183 187 185 180 178 180 186 192 208 225 221 207 193 187 202 192 192 196 186 184 198 214 230 229 226 229 221 216 236 245 252 265 276 285 283
145 148 155 160 171 174 173 178 191 191 184 180 172 175 180 188 203 218 208 186 181 194 210 204 204 197 195 203 212 204 212 234 252 250 222 217 229 250 256 260 268 276 278
Height
1520 1521 1522 1522 1523 1523 1524 1524 1523 1523 1523 1522 1522 1521 1521 1520 1520 1519 1518 1518 1517 1517 1516 1516 1515 1515 1515 1514 1514 1513 1513 1513 1511 1510 1509 1509 1508 1507 1506 1506 1505 1505 1504
1518 1519 1519 1520 1521 1521 1521 1521 1521 1521 1520 1520 1519 1519 1518 1518 1517 1516 1515 1515 1515 1514 1514 1514 1513 1513 1512 1512 1511 1511 1510 1510 1509 1507 1506 1506 1505 1505 1504 1503 1503 1503 1502
1516 1517 1518 1518 1519 1519 1519 1519 1519 1518 1518 1518 1517 1516 1516 1515 1514 1513 1512 1512 1511 1512 1512 1511 1511 1511 1510 1510 1509 1508 1507 1507 1506 1505 1503 1503 1503 1502 1502 1501 1500 1500 1500
1514 1515 1515 1516 1517 1517 1517 1517 1517 1516 1516 1515 1515 1514 1513 1512 1511 1510 1509 1508 1508 1509 1509 1509 1509 1509 1508 1507 1506 1505 1505 1504 1503 1502 1501 1500 1500 1499 1499 1498 1498 1497 1497
1512 1512 1513 1514 1515 1515 1515 1515 1514 1514 1514 1513 1513 1512 1511 1510 1508 1507 1506 1505 1506 1506 1506 1506 1506 1506 1505 1505 1504 1502 1502 1501 1500 1499 1498 1497 1496 1496 1496 1496 1495 1495 1495
1509 1510 1510 1511 1512 1512 1512 1512 1511 1511 1511 1511 1510 1509 1508 1507 1506 1505 1504 1504 1504 1504 1503 1503 1503 1503 1502 1502 1501 1500 1499 1498 1497 1496 1495 1494 1493 1493 1493 1493 1493 1492 1492
1506 1507 1508 1509 1509 1509 1509 1509 1509 1509 1508 1508 1507 1506 1505 1504 1504 1503 1502 1502 1501 1501 1501 1500 1500 1500 1499 1498 1497 1496 1496 1495 1495 1494 1492 1491 1490 1490 1490 1490 1489 1489 1489
1504 1505 1505 1506 1506 1506 1506 1506 1506 1506 1506 1505 1504 1503 1502 1502 1501 1500 1500 1499 1498 1498 1498 1497 1497 1496 1496 1495 1494 1493 1492 1491 1491 1490 1489 1488 1488 1487 1487 1487 1486 1486 1486
1501 1501 1502 1502 1503 1503 1503 1503 1503 1503 1503 1502 1501 1500 1499 1499 1498 1497 1497 1495 1495 1494 1494 1494 1493 1493 1492 1492 1491 1489 1488 1487 1487 1487 1486 1485 1485 1484 1484 1483 1482 1482 1481
1498 1498 1499 1499 1499 1500 1500 1500 1500 1500 1499 1499 1498 1497 1497 1496 1495 1494 1494 1493 1491 1491 1490 1490 1489 1489 1489 1488 1487 1486 1485 1484 1483 1483 1482 1481 1481 1480 1480 1480 1479 1479 1478
1495 1495 1496 1496 1496 1496 1497 1497 1497 1496 1496 1495 1495 1494 1494 1493 1492 1491 1491 1490 1488 1487 1487 1486 1486 1485 1485 1485 1484 1483 1482 1481 1480 1479 1479 1478 1478 1477 1477 1476 1476 1476 1475
1492 1492 1492 1493 1493 1493 1493 1493 1493 1493 1492 1492 1491 1491 1490 1490 1489 1488 1488 1487 1486 1484 1483 1483 1482 1482 1482 1481 1481 1480 1479 1478 1477 1476 1476 1475 1474 1474 1474 1474 1473 1473 1473
1489 1489 1489 1489 1490 1490 1490 1489 1490 1490 1489 1488 1488 1487 1487 1487 1486 1485 1484 1483 1482 1481 1480 1480 1479 1479 1478 1478 1477 1476 1476 1475 1474 1473 1472 1472 1472 1472 1471 1471 1470 1470 1470
1485 1485 1485 1485 1486 1486 1486 1486 1486 1486 1486 1485 1485 1485 1484 1484 1483 1482 1481 1481 1479 1478 1477 1477 1477 1476 1475 1475 1474 1473 1473 1472 1471 1471 1470 1470 1469 1469 1468 1468 1467 1466 1466
1482 1482 1482 1482 1483 1483 1483 1483 1483 1483 1483 1482 1482 1482 1481 1481 1481 1481 1480 1478 1477 1476 1475 1475 1474 1473 1473 1472 1471 1471 1470 1470 1469 1468 1467 1467 1466 1466 1466 1465 1464 1464 1463
1478 1478 1479 1479 1479 1479 1480 1480 1480 1480 1480 1480 1479 1479 1478 1479 1478 1478 1477 1476 1475 1474 1473 1472 1472 1471 1470 1470 1469 1468 1468 1467 1466 1465 1465 1464 1464 1463 1463 1462 1461 1461 1460
1475 1475 1475 1476 1476 1476 1476 1476 1477 1477 1477 1477 1477 1476 1476 1476 1475 1475 1474 1474 1473 1472 1471 1470 1470 1469 1468 1468 1467 1466 1465 1465 1464 1463 1463 1462 1461 1461 1460 1459 1458 1457 1457
1471 1472 1472 1472 1473 1473 1473 1473 1474 1474 1473 1473 1474 1474 1474 1473 1473 1472 1472 1471 1470 1470 1469 1469 1468 1468 1467 1466 1465 1464 1464 1463 1462 1461 1460 1459 1458 1457 1456 1455 1455 1454 1453
1468 1468 1469 1469 1469 1470 1470 1471 1471 1471 1470 1470 1471 1471 1471 1471 1470 1470 1469 1469 1468 1468 1467 1467 1467 1466 1465 1465 1464 1463 1462 1461 1460 1459 1458 1457 1456 1454 1453 1452 1451 1451 1450
1465 1465 1466 1466 1467 1467 1467 1467 1467 1467 1467 1467 1468 1468 1468 1468 1467 1467 1466 1466 1466 1466 1465 1465 1465 1464 1463 1462 1461 1460 1459 1458 1457 1457 1456 1455 1454 1453 1451 1450 1449 1447 1446
1462 1462 1463 1463 1464 1464 1464 1465 1465 1465 1465 1465 1465 1466 1466 1465 1465 1465 1464 1464 1464 1463 1463 1463 1462 1462 1461 1460 1459 1458 1457 1456 1455 1454 1453 1452 1451 1450 1449 1447 1446 1445 1443
1459 1459 1460 1460 1461 1461 1462 1462 1463 1463 1463 1463 1463 1463 1464 1464 1463 1463 1462 1462 1461 1461 1461 1460 1460 1459 1458 1457 1456 1455 1454 1453 1452 1451 1450 1450 1449 1448 1446 1445 1443 1442 1440
1457 1457 1457 1457 1458 1459 1460 1460 1461 1461 1461 1461 1461 1461 1461 1461 1461 1460 1460 1460 1459 1459 1458 1458 1457 1456 1455 1454 1453 1452 1451 1450 1450 1449 1448 1447 1445 1444 1443 1442 1440 1439 1438
1454 1454 1454 1455 1456 1456 1457 1458 1458 1458 1458 1458 1458 1459 1459 1458 1458 1458 1458 1457 1456 1456 1456 1455 1454 1453 1452 1451 1450 1449 1448 1448 1447 1446 1445 1443 1442 1441 1440 1439 1438 1436 1435
1452 1452 1453 1453 1453 1454 1455 1455 1456 1456 1456 1456 1456 1456 1456 1456 1455 1455 1455 1455 1454 1453 1453 1452 1451 1450 1449 1448 1447 1446 1445 1444 1443 1442 1441 1440 1439 1437 1437 1436 1434 1433 1433
1450 1450 1451 1451 1451 1452 1452 1452 1453 1453 1453 1453 1453 1454 1454 1453 1453 1452 1452 1452 1451 1450 1450 1449 1448 1447 1446 1445 1444 1443 1441 1440 1440 1438 1437 1436 1435 1434 1433 1432 1431 1430 1429